Time,TemperatureF,DewpointF,PressureIn,WindDirection,WindDirectionDegrees,WindSpeedMPH,WindSpeedGustMPH,Humidity,HourlyPrecipIn,Conditions,Clouds,dailyrainin,SoftwareType,DateUTC
2013-06-09 00:00:00,60.0,52.0,29.66,NNW,341,0.0,5.0,75,0.00,,,-99.99,Weather View 32 v60,2013-06-09 07:00:00,
2013-06-09 00:05:00,59.9,51.9,29.66,NNW,341,0.0,4.0,75,0.00,,,-99.99,Weather View 32 v60,2013-06-09 07:05:00,
2013-06-09 00:10:00,59.8,52.2,29.66,NNW,341,0.0,4.0,76,0.00,,,-99.99,Weather View 32 v60,2013-06-09 07:10:00,
2013-06-09 00:15:00,59.7,51.7,29.66,NNW,341,0.0,4.0,75,0.00,,,-99.99,Weather View 32 v60,2013-06-09 07:15:00,
2013-06-09 00:20:00,59.6,51.6,29.67,NNW,341,0.0,4.0,75,0.00,,,-99.99,Weather View 32 v60,2013-06-09 07:20:00,
2013-06-09 00:25:00,59.5,51.5,29.67,NNW,341,0.0,4.0,75,0.00,,,-99.99,Weather View 32 v60,2013-06-09 07:25:00,
2013-06-09 00:30:00,59.4,51.5,29.67,NNW,341,0.0,4.0,75,0.00,,,-99.99,Weather View 32 v60,2013-06-09 07:30:00,
2013-06-09 00:40:00,59.2,51.3,29.66,NNW,341,0.0,4.0,75,0.00,,,-99.99,Weather View 32 v60,2013-06-09 07:40:00,
2013-06-09 00:50:00,59.0,51.4,29.66,NNW,341,0.0,2.0,76,0.00,,,-99.99,Weather View 32 v60,2013-06-09 07:50:00,
2013-06-09 00:55:00,59.0,51.4,29.66,NNW,341,0.0,2.0,76,0.00,,,-99.99,Weather View 32 v60,2013-06-09 07:55:00,
2013-06-09 01:00:00,59.0,51.4,29.66,NNW,341,0.0,2.0,76,0.00,,,-99.99,Weather View 32 v60,2013-06-09 08:00:00,
2013-06-09 01:05:00,59.0,51.4,29.66,NNW,341,0.0,2.0,76,0.00,,,-99.99,Weather View 32 v60,2013-06-09 08:05:00,
2013-06-09 01:15:00,58.9,51.7,29.66,NNW,341,0.0,0.0,77,0.00,,,-99.99,Weather View 32 v60,2013-06-09 08:15:00,
2013-06-09 01:20:00,58.9,51.7,29.66,NNW,341,0.0,0.0,77,0.00,,,-99.99,Weather View 32 v60,2013-06-09 08:20:00,
2013-06-09 01:25:00,58.9,51.3,29.66,NNW,341,0.0,0.0,76,0.00,,,-99.99,Weather View 32 v60,2013-06-09 08:25:00,
2013-06-09 01:30:00,58.8,51.6,29.66,NNW,341,0.0,0.0,77,0.00,,,-99.99,Weather View 32 v60,2013-06-09 08:30:00,
2013-06-09 01:40:00,58.7,51.8,29.66,NNW,341,0.0,0.0,78,0.00,,,-99.99,Weather View 32 v60,2013-06-09 08:40:00,
2013-06-09 01:45:00,58.6,51.7,29.67,NNW,341,0.0,0.0,78,0.00,,,-99.99,Weather View 32 v60,2013-06-09 08:45:00,
2013-06-09 01:50:00,58.5,51.6,29.66,NNW,341,0.0,0.0,78,0.00,,,-99.99,Weather View 32 v60,2013-06-09 08:50:00,
2013-06-09 02:00:00,58.3,51.5,29.67,NNW,341,0.0,0.0,78,0.00,,,-99.99,Weather View 32 v60,2013-06-09 09:00:00,
2013-06-09 02:05:00,58.2,51.4,29.67,NNW,341,0.0,0.0,78,0.00,,,-99.99,Weather View 32 v60,2013-06-09 09:05:00,
2013-06-09 02:10:00,58.1,51.6,29.67,NNW,341,0.0,0.0,79,0.00,,,-99.99,Weather View 32 v60,2013-06-09 09:10:00,
2013-06-09 02:15:00,58.2,51.7,29.67,NNW,341,0.0,0.0,79,0.00,,,-99.99,Weather View 32 v60,2013-06-09 09:15:00,
2013-06-09 02:20:00,58.0,51.5,29.67,NNW,341,0.0,0.0,79,0.00,,,-99.99,Weather View 32 v60,2013-06-09 09:20:00,
2013-06-09 02:30:00,57.9,51.4,29.67,NNW,341,0.0,0.0,79,0.00,,,-99.99,Weather View 32 v60,2013-06-09 09:30:00,
2013-06-09 02:35:00,57.8,51.3,29.67,NNW,341,0.0,0.0,79,0.00,,,-99.99,Weather View 32 v60,2013-06-09 09:35:00,
2013-06-09 02:45:00,57.7,51.2,29.67,NNW,341,0.0,0.0,79,0.00,,,-99.99,Weather View 32 v60,2013-06-09 09:45:00,
2013-06-09 02:55:00,57.4,50.9,29.68,NNW,341,0.0,0.0,79,0.00,,,-99.99,Weather View 32 v60,2013-06-09 09:55:00,
2013-06-09 03:00:00,57.3,50.8,29.67,NNW,341,0.0,0.0,79,0.00,,,-99.99,Weather View 32 v60,2013-06-09 10:00:00,
2013-06-09 03:10:00,57.1,51.0,29.68,NNW,341,0.0,0.0,80,0.00,,,-99.99,Weather View 32 v60,2013-06-09 10:10:00,
2013-06-09 03:15:00,57.0,50.9,29.67,NNW,341,0.0,0.0,80,0.00,,,-99.99,Weather View 32 v60,2013-06-09 10:15:00,
2013-06-09 03:20:00,56.9,51.1,29.67,NNW,341,0.0,0.0,81,0.00,,,-99.99,Weather View 32 v60,2013-06-09 10:20:00,
2013-06-09 03:25:00,56.8,50.7,29.67,NNW,341,0.0,0.0,80,0.00,,,-99.99,Weather View 32 v60,2013-06-09 10:25:00,
2013-06-09 03:30:00,56.7,50.6,29.68,NNW,341,0.0,0.0,80,0.00,,,-99.99,Weather View 32 v60,2013-06-09 10:30:00,
2013-06-09 03:35:00,56.6,51.5,29.67,NNW,341,0.0,0.0,83,0.00,,,-99.99,Weather View 32 v60,2013-06-09 10:35:00,
2013-06-09 03:40:00,56.5,51.7,29.67,NNW,341,0.0,0.0,84,0.00,,,-99.99,Weather View 32 v60,2013-06-09 10:40:00,
2013-06-09 03:50:00,56.5,51.7,29.67,NNW,341,0.0,0.0,84,0.00,,,-99.99,Weather View 32 v60,2013-06-09 10:50:00,
2013-06-09 03:55:00,56.6,52.1,29.67,NNW,341,0.0,0.0,85,0.00,,,-99.99,Weather View 32 v60,2013-06-09 10:55:00,
2013-06-09 04:00:00,56.6,51.8,29.67,NNW,341,0.0,0.0,84,0.00,,,-99.99,Weather View 32 v60,2013-06-09 11:00:00,
2013-06-09 04:10:00,56.6,51.8,29.67,NNW,341,0.0,0.0,84,0.00,,,-99.99,Weather View 32 v60,2013-06-09 11:10:00,
2013-06-09 04:15:00,56.6,52.1,29.67,NNW,341,0.0,0.0,85,0.00,,,-99.99,Weather View 32 v60,2013-06-09 11:15:00,
2013-06-09 04:20:00,56.6,52.1,29.67,NNW,341,0.0,0.0,85,0.00,,,-99.99,Weather View 32 v60,2013-06-09 11:20:00,
2013-06-09 04:25:00,56.7,52.2,29.67,NNW,341,0.0,0.0,85,0.00,,,-99.99,Weather View 32 v60,2013-06-09 11:25:00,
2013-06-09 04:30:00,56.8,52.3,29.67,NNW,341,0.0,0.0,85,0.00,,,-99.99,Weather View 32 v60,2013-06-09 11:30:00,
2013-06-09 04:35:00,56.9,52.4,29.67,NNW,341,0.0,0.0,85,0.00,,,-99.99,Weather View 32 v60,2013-06-09 11:35:00,
2013-06-09 04:40:00,56.9,52.4,29.67,NNW,341,0.0,0.0,85,0.00,,,-99.99,Weather View 32 v60,2013-06-09 11:40:00,
2013-06-09 04:45:00,57.0,52.5,29.67,NNW,341,0.0,0.0,85,0.00,,,-99.99,Weather View 32 v60,2013-06-09 11:45:00,
2013-06-09 04:55:00,57.2,52.7,29.67,NNW,341,0.0,0.0,85,0.00,,,-99.99,Weather View 32 v60,2013-06-09 11:55:00,
2013-06-09 05:00:00,57.2,52.7,29.67,NNW,341,0.0,1.0,85,0.00,,,-99.99,Weather View 32 v60,2013-06-09 12:00:00,
2013-06-09 05:05:00,57.2,52.7,29.67,North,0,0.0,6.0,85,0.00,,,-99.99,Weather View 32 v60,2013-06-09 12:05:00,
2013-06-09 05:15:00,57.4,52.9,29.67,North,0,0.0,6.0,85,0.00,,,-99.99,Weather View 32 v60,2013-06-09 12:15:00,
2013-06-09 05:25:00,57.6,53.1,29.67,North,0,0.0,6.0,85,0.00,,,-99.99,Weather View 32 v60,2013-06-09 12:25:00,
2013-06-09 05:30:00,57.8,53.0,29.67,North,0,0.0,6.0,84,0.00,,,-99.99,Weather View 32 v60,2013-06-09 12:30:00,
2013-06-09 05:35:00,58.0,53.2,29.67,North,0,2.0,6.0,84,0.00,,,-99.99,Weather View 32 v60,2013-06-09 12:35:00,
2013-06-09 05:40:00,58.2,53.0,29.67,ENE,57,1.0,6.0,83,0.00,,,-99.99,Weather View 32 v60,2013-06-09 12:40:00,
2013-06-09 05:50:00,58.3,52.8,29.68,North,357,4.0,8.0,82,0.00,,,-99.99,Weather View 32 v60,2013-06-09 12:50:00,
2013-06-09 05:55:00,58.3,52.8,29.68,NE,43,7.0,10.0,82,0.00,,,-99.99,Weather View 32 v60,2013-06-09 12:55:00,
2013-06-09 06:00:00,58.3,52.8,29.68,North,5,9.0,10.0,82,0.00,,,-99.99,Weather View 32 v60,2013-06-09 13:00:00,
2013-06-09 06:05:00,58.3,52.8,29.68,North,351,4.0,10.0,82,0.00,,,-99.99,Weather View 32 v60,2013-06-09 13:05:00,
2013-06-09 06:15:00,58.3,52.8,29.68,North,349,3.0,12.0,82,0.00,,,-99.99,Weather View 32 v60,2013-06-09 13:15:00,
2013-06-09 06:20:00,58.3,52.8,0.00,North,9,1.0,12.0,82,0.00,,,-99.99,Weather View 32 v60,2013-06-09 13:20:00,
2013-06-09 06:25:00,58.3,52.8,29.69,NNW,331,8.0,12.0,82,0.00,,,-99.99,Weather View 32 v60,2013-06-09 13:25:00,
2013-06-09 06:35:00,58.4,52.9,29.69,North,7,1.0,12.0,82,0.00,,,-99.99,Weather View 32 v60,2013-06-09 13:35:00,
2013-06-09 06:40:00,58.5,53.0,29.69,ENE,59,7.0,12.0,82,0.00,,,-99.99,Weather View 32 v60,2013-06-09 13:40:00,
2013-06-09 06:50:00,58.5,53.0,29.69,North,0,3.0,12.0,82,0.00,,,-99.99,Weather View 32 v60,2013-06-09 13:50:00,
2013-06-09 06:55:00,58.5,53.0,29.69,NNW,336,0.0,12.0,82,0.00,,,-99.99,Weather View 32 v60,2013-06-09 13:55:00,
2013-06-09 07:00:00,58.6,53.1,29.69,NNW,332,0.0,12.0,82,0.00,,,-99.99,Weather View 32 v60,2013-06-09 14:00:00,
2013-06-09 07:07:00,58.6,53.1,29.69,NNW,340,1.0,12.0,82,0.00,,,-99.99,Weather View 32 v60,2013-06-09 14:07:00,
2013-06-09 07:15:00,58.7,53.2,29.70,NNW,336,3.0,11.0,82,0.00,,,-99.99,Weather View 32 v60,2013-06-09 14:15:00,
2013-06-09 07:25:00,58.7,53.2,29.69,NNE,13,3.0,11.0,82,0.00,,,-99.99,Weather View 32 v60,2013-06-09 14:25:00,
2013-06-09 07:30:00,58.8,53.3,29.69,NNE,24,0.0,11.0,82,0.00,,,-99.99,Weather View 32 v60,2013-06-09 14:30:00,
2013-06-09 07:35:00,58.8,53.3,29.70,NNE,12,4.0,11.0,82,0.00,,,-99.99,Weather View 32 v60,2013-06-09 14:35:00,
2013-06-09 07:45:00,58.9,53.4,29.70,NE,48,3.0,12.0,82,0.00,,,-99.99,Weather View 32 v60,2013-06-09 14:45:00,
2013-06-09 07:50:00,59.1,53.3,29.70,NNW,341,0.0,12.0,81,0.00,,,-99.99,Weather View 32 v60,2013-06-09 14:50:00,
2013-06-09 07:55:00,59.1,53.3,29.70,ENE,72,3.0,12.0,81,0.00,,,-99.99,Weather View 32 v60,2013-06-09 14:55:00,
2013-06-09 08:00:00,59.2,53.0,29.70,North,7,5.0,12.0,80,0.00,,,-99.99,Weather View 32 v60,2013-06-09 15:00:00,
2013-06-09 08:05:00,59.4,53.2,29.70,ESE,123,0.0,12.0,80,0.00,,,-99.99,Weather View 32 v60,2013-06-09 15:05:00,
2013-06-09 08:15:00,59.7,53.2,29.70,ENE,78,2.0,12.0,79,0.00,,,-99.99,Weather View 32 v60,2013-06-09 15:15:00,
2013-06-09 08:20:00,59.8,53.3,29.70,North,2,2.0,12.0,79,0.00,,,-99.99,Weather View 32 v60,2013-06-09 15:20:00,
2013-06-09 08:30:00,60.1,53.5,29.71,South,180,0.0,12.0,79,0.00,,,-99.99,Weather View 32 v60,2013-06-09 15:30:00,
2013-06-09 08:35:00,60.4,53.5,29.71,SSE,151,3.0,12.0,78,0.00,,,-99.99,Weather View 32 v60,2013-06-09 15:35:00,
2013-06-09 08:40:00,60.8,53.9,29.71,South,169,4.0,12.0,78,0.00,,,-99.99,Weather View 32 v60,2013-06-09 15:40:00,
2013-06-09 08:50:00,61.3,54.0,29.71,NNW,348,4.0,12.0,77,0.00,,,-99.99,Weather View 32 v60,2013-06-09 15:50:00,
2013-06-09 08:55:00,61.3,53.7,29.70,North,0,2.0,12.0,76,0.00,,,-99.99,Weather View 32 v60,2013-06-09 15:55:00,
2013-06-09 09:00:00,61.3,53.7,29.70,North,359,5.0,12.0,76,0.00,,,-99.99,Weather View 32 v60,2013-06-09 16:00:00,
2013-06-09 09:08:00,61.4,54.1,29.71,SE,132,0.0,12.0,77,0.00,,,-99.99,Weather View 32 v60,2013-06-09 16:08:00,
2013-06-09 09:15:00,62.0,54.3,29.71,NW,324,3.0,12.0,76,0.00,,,-99.99,Weather View 32 v60,2013-06-09 16:15:00,
2013-06-09 09:20:00,62.3,54.3,29.71,NNW,334,0.0,11.0,75,0.00,,,-99.99,Weather View 32 v60,2013-06-09 16:20:00,
2013-06-09 09:30:00,62.7,54.3,29.71,North,9,2.0,11.0,74,0.00,,,-99.99,Weather View 32 v60,2013-06-09 16:30:00,
2013-06-09 09:35:00,63.0,54.6,29.71,South,179,0.0,11.0,74,0.00,,,-99.99,Weather View 32 v60,2013-06-09 16:35:00,
2013-06-09 09:40:00,63.3,54.5,29.71,North,7,5.0,11.0,73,0.00,,,-99.99,Weather View 32 v60,2013-06-09 16:40:00,
2013-06-09 09:45:00,63.6,54.8,29.71,NE,44,3.0,11.0,73,0.00,,,-99.99,Weather View 32 v60,2013-06-09 16:45:00,
2013-06-09 09:50:00,63.7,54.9,29.71,North,3,3.0,11.0,73,0.00,,,-99.99,Weather View 32 v60,2013-06-09 16:50:00,
2013-06-09 09:55:00,64.0,54.8,29.71,NNE,12,0.0,11.0,72,0.00,,,-99.99,Weather View 32 v60,2013-06-09 16:55:00,
2013-06-09 10:00:00,64.1,54.5,29.70,NNE,13,0.0,11.0,71,0.00,,,-99.99,Weather View 32 v60,2013-06-09 17:00:00,
2013-06-09 10:05:00,64.2,54.6,29.71,NNE,13,2.0,11.0,71,0.00,,,-99.99,Weather View 32 v60,2013-06-09 17:05:00,
2013-06-09 10:15:00,64.7,54.7,29.71,SSE,152,4.0,11.0,70,0.00,,,-99.99,Weather View 32 v60,2013-06-09 17:15:00,
2013-06-09 10:20:00,65.0,54.9,29.71,SE,137,1.0,11.0,70,0.00,,,-99.99,Weather View 32 v60,2013-06-09 17:20:00,
2013-06-09 10:25:00,65.2,55.1,29.71,SSE,156,2.0,11.0,70,0.00,,,-99.99,Weather View 32 v60,2013-06-09 17:25:00,
2013-06-09 10:30:00,65.3,55.2,29.72,SSE,158,6.0,11.0,70,0.00,,,-99.99,Weather View 32 v60,2013-06-09 17:30:00,
2013-06-09 10:35:00,65.5,55.0,29.71,NE,49,0.0,11.0,69,0.00,,,-99.99,Weather View 32 v60,2013-06-09 17:35:00,
2013-06-09 10:40:00,65.6,55.5,29.71,NW,308,5.0,11.0,70,0.00,,,-99.99,Weather View 32 v60,2013-06-09 17:40:00,
2013-06-09 10:45:00,65.9,55.0,29.72,South,188,4.0,11.0,68,0.00,,,-99.99,Weather View 32 v60,2013-06-09 17:45:00,
2013-06-09 10:50:00,66.0,55.1,29.72,SSE,161,3.0,11.0,68,0.00,,,-99.99,Weather View 32 v60,2013-06-09 17:50:00,
2013-06-09 10:55:00,66.2,54.9,29.72,South,187,1.0,11.0,67,0.00,,,-99.99,Weather View 32 v60,2013-06-09 17:55:00,
2013-06-09 11:00:00,66.2,54.9,29.72,SW,233,5.0,13.0,67,0.00,,,-99.99,Weather View 32 v60,2013-06-09 18:00:00,
2013-06-09 11:05:00,66.1,54.8,29.72,NE,45,2.0,13.0,67,0.00,,,-99.99,Weather View 32 v60,2013-06-09 18:05:00,
2013-06-09 11:10:00,66.1,54.8,29.72,South,180,4.0,13.0,67,0.00,,,-99.99,Weather View 32 v60,2013-06-09 18:10:00,
2013-06-09 11:20:00,66.2,54.9,29.72,NNE,12,4.0,13.0,67,0.00,,,-99.99,Weather View 32 v60,2013-06-09 18:20:00,
2013-06-09 11:25:00,66.1,54.8,29.72,SE,126,2.0,13.0,67,0.00,,,-99.99,Weather View 32 v60,2013-06-09 18:25:00,
2013-06-09 11:30:00,65.8,55.3,29.72,SSE,156,2.0,13.0,69,0.00,,,-99.99,Weather View 32 v60,2013-06-09 18:30:00,
2013-06-09 11:35:00,65.4,54.5,29.72,NNW,331,2.0,13.0,68,0.00,,,-99.99,Weather View 32 v60,2013-06-09 18:35:00,
2013-06-09 11:40:00,65.2,54.7,29.72,SE,125,2.0,13.0,69,0.00,,,-99.99,Weather View 32 v60,2013-06-09 18:40:00,
2013-06-09 11:45:00,65.2,54.7,29.73,North,356,4.0,13.0,69,0.00,,,-99.99,Weather View 32 v60,2013-06-09 18:45:00,
2013-06-09 11:50:00,65.0,54.6,29.73,SE,145,5.0,13.0,69,0.00,,,-99.99,Weather View 32 v60,2013-06-09 18:50:00,
2013-06-09 11:55:00,65.3,55.2,29.72,NE,45,6.0,13.0,70,0.00,,,-99.99,Weather View 32 v60,2013-06-09 18:55:00,
2013-06-09 12:00:00,65.6,54.7,0.00,ESE,121,3.0,13.0,68,0.00,,,-99.99,Weather View 32 v60,2013-06-09 19:00:00,
2013-06-09 12:05:00,65.9,55.0,29.73,NE,44,5.0,13.0,68,0.00,,,-99.99,Weather View 32 v60,2013-06-09 19:05:00,
2013-06-09 12:10:00,65.9,54.6,29.73,NNE,12,8.0,13.0,67,0.00,,,-99.99,Weather View 32 v60,2013-06-09 19:10:00,
2013-06-09 12:15:00,65.4,54.1,29.73,North,352,3.0,13.0,67,0.00,,,-99.99,Weather View 32 v60,2013-06-09 19:15:00,
2013-06-09 12:20:00,65.3,54.8,29.73,SSE,148,4.0,13.0,69,0.00,,,-99.99,Weather View 32 v60,2013-06-09 19:20:00,
2013-06-09 12:25:00,65.7,54.4,29.73,South,190,7.0,13.0,67,0.00,,,-99.99,Weather View 32 v60,2013-06-09 19:25:00,
2013-06-09 12:30:00,66.1,55.2,29.73,SE,131,7.0,13.0,68,0.00,,,-99.99,Weather View 32 v60,2013-06-09 19:30:00,
2013-06-09 12:40:00,66.8,55.0,29.73,SSE,158,11.0,13.0,66,0.00,,,-99.99,Weather View 32 v60,2013-06-09 19:40:00,
2013-06-09 12:45:00,67.0,54.8,29.73,NW,312,4.0,13.0,65,0.00,,,-99.99,Weather View 32 v60,2013-06-09 19:45:00,
2013-06-09 12:50:00,67.0,54.8,29.73,South,169,4.0,13.0,65,0.00,,,-99.99,Weather View 32 v60,2013-06-09 19:50:00,
2013-06-09 12:55:00,67.0,54.8,29.73,NNE,29,5.0,13.0,65,0.00,,,-99.99,Weather View 32 v60,2013-06-09 19:55:00,
2013-06-09 13:00:00,66.6,54.4,29.74,WSW,258,5.0,15.0,65,0.00,,,-99.99,Weather View 32 v60,2013-06-09 20:00:00,
2013-06-09 13:05:00,66.2,54.5,29.74,NE,47,6.0,15.0,66,0.00,,,-99.99,Weather View 32 v60,2013-06-09 20:05:00,
2013-06-09 13:10:00,65.9,54.6,29.74,NNE,29,7.0,15.0,67,0.00,,,-99.99,Weather View 32 v60,2013-06-09 20:10:00,
2013-06-09 13:20:00,66.2,54.5,29.74,SSE,164,0.0,15.0,66,0.00,,,-99.99,Weather View 32 v60,2013-06-09 20:20:00,
2013-06-09 13:25:00,66.2,54.5,29.74,North,6,12.0,15.0,66,0.00,,,-99.99,Weather View 32 v60,2013-06-09 20:25:00,
2013-06-09 13:30:00,66.4,54.7,29.74,East,89,6.0,15.0,66,0.00,,,-99.99,Weather View 32 v60,2013-06-09 20:30:00,
2013-06-09 13:35:00,66.8,55.0,29.74,SE,132,8.0,15.0,66,0.00,,,-99.99,Weather View 32 v60,2013-06-09 20:35:00,
2013-06-09 13:40:00,67.2,55.0,29.74,SW,234,2.0,15.0,65,0.00,,,-99.99,Weather View 32 v60,2013-06-09 20:40:00,
2013-06-09 13:45:00,67.6,55.0,29.74,ESE,104,6.0,15.0,64,0.00,,,-99.99,Weather View 32 v60,2013-06-09 20:45:00,
2013-06-09 13:50:00,67.6,55.0,29.73,SE,145,4.0,18.0,64,0.00,,,-99.99,Weather View 32 v60,2013-06-09 20:50:00,
2013-06-09 13:55:00,67.8,54.7,29.74,SW,232,3.0,18.0,63,0.00,,,-99.99,Weather View 32 v60,2013-06-09 20:55:00,
2013-06-09 14:00:00,67.1,54.5,29.74,ENE,59,4.0,18.0,64,0.00,,,-99.99,Weather View 32 v60,2013-06-09 21:00:00,
2013-06-09 14:05:00,66.9,54.3,29.73,ESE,110,2.0,18.0,64,0.00,,,-99.99,Weather View 32 v60,2013-06-09 21:05:00,
2013-06-09 14:10:00,66.5,54.3,29.73,NNW,345,2.0,18.0,65,0.00,,,-99.99,Weather View 32 v60,2013-06-09 21:10:00,
2013-06-09 14:15:00,66.5,55.2,29.73,WSW,240,9.0,18.0,67,0.00,,,-99.99,Weather View 32 v60,2013-06-09 21:15:00,
2013-06-09 14:20:00,66.7,54.5,29.73,NNE,17,7.0,18.0,65,0.00,,,-99.99,Weather View 32 v60,2013-06-09 21:20:00,
2013-06-09 14:25:00,66.4,54.7,29.72,SSE,157,9.0,18.0,66,0.00,,,-99.99,Weather View 32 v60,2013-06-09 21:25:00,
2013-06-09 14:35:00,67.4,55.2,29.72,SSW,193,6.0,18.0,65,0.00,,,-99.99,Weather View 32 v60,2013-06-09 21:35:00,
2013-06-09 14:40:00,67.7,55.0,29.73,NE,51,7.0,18.0,64,0.00,,,-99.99,Weather View 32 v60,2013-06-09 21:40:00,
2013-06-09 14:45:00,68.1,55.9,29.72,North,354,4.0,18.0,65,0.00,,,-99.99,Weather View 32 v60,2013-06-09 21:45:00,
2013-06-09 14:50:00,68.1,55.4,29.72,NW,318,2.0,14.0,64,0.00,,,-99.99,Weather View 32 v60,2013-06-09 21:50:00,
2013-06-09 14:55:00,68.7,55.1,29.72,East,96,3.0,14.0,62,0.00,,,-99.99,Weather View 32 v60,2013-06-09 21:55:00,
2013-06-09 15:00:00,68.7,55.1,29.72,NNW,330,6.0,14.0,62,0.00,,,-99.99,Weather View 32 v60,2013-06-09 22:00:00,
2013-06-09 15:05:00,68.4,55.3,29.72,WSW,237,0.0,14.0,63,0.00,,,-99.99,Weather View 32 v60,2013-06-09 22:05:00,
2013-06-09 15:10:00,68.4,54.8,29.72,South,173,5.0,14.0,62,0.00,,,-99.99,Weather View 32 v60,2013-06-09 22:10:00,
2013-06-09 15:15:00,68.7,55.6,29.72,SSE,157,2.0,14.0,63,0.00,,,-99.99,Weather View 32 v60,2013-06-09 22:15:00,
2013-06-09 15:20:00,68.9,55.7,29.72,SSW,201,5.0,14.0,63,0.00,,,-99.99,Weather View 32 v60,2013-06-09 22:20:00,
2013-06-09 15:25:00,69.4,55.3,29.72,SSW,200,3.0,14.0,61,0.00,,,-99.99,Weather View 32 v60,2013-06-09 22:25:00,
2013-06-09 15:30:00,69.8,55.2,29.71,SW,229,2.0,14.0,60,0.00,,,-99.99,Weather View 32 v60,2013-06-09 22:30:00,
2013-06-09 15:40:00,69.8,55.2,29.71,South,188,3.0,14.0,60,0.00,,,-99.99,Weather View 32 v60,2013-06-09 22:40:00,
2013-06-09 15:45:00,69.5,55.0,29.72,SE,127,4.0,14.0,60,0.00,,,-99.99,Weather View 32 v60,2013-06-09 22:45:00,
2013-06-09 15:50:00,68.4,54.8,29.71,SSW,204,1.0,14.0,62,0.00,,,-99.99,Weather View 32 v60,2013-06-09 22:50:00,
2013-06-09 15:55:00,67.7,54.2,29.71,North,353,3.0,14.0,62,0.00,,,-99.99,Weather View 32 v60,2013-06-09 22:55:00,
2013-06-09 16:00:00,67.1,54.5,29.72,NW,318,2.0,14.0,64,0.00,,,-99.99,Weather View 32 v60,2013-06-09 23:00:00,
2013-06-09 16:05:00,66.5,54.3,29.71,NNW,343,7.0,14.0,65,0.00,,,-99.99,Weather View 32 v60,2013-06-09 23:05:00,
2013-06-09 16:12:00,66.2,54.1,29.71,ESE,109,6.0,14.0,65,0.00,,,-99.99,Weather View 32 v60,2013-06-09 23:12:00,
2013-06-09 16:20:00,65.8,54.5,29.71,NNW,340,1.0,14.0,67,0.00,,,-99.99,Weather View 32 v60,2013-06-09 23:20:00,
2013-06-09 16:25:00,65.4,54.1,29.71,North,357,1.0,14.0,67,0.00,,,-99.99,Weather View 32 v60,2013-06-09 23:25:00,
2013-06-09 16:30:00,65.2,53.9,29.71,SW,215,4.0,14.0,67,0.00,,,-99.99,Weather View 32 v60,2013-06-09 23:30:00,
2013-06-09 16:35:00,64.9,54.1,29.71,NNW,341,2.0,14.0,68,0.00,,,-99.99,Weather View 32 v60,2013-06-09 23:35:00,
2013-06-09 16:40:00,64.6,53.8,29.72,NE,39,2.0,14.0,68,0.00,,,-99.99,Weather View 32 v60,2013-06-09 23:40:00,
2013-06-09 16:50:00,64.7,53.9,29.71,SSE,166,5.0,12.0,68,0.00,,,-99.99,Weather View 32 v60,2013-06-09 23:50:00,
2013-06-09 16:55:00,64.7,53.9,29.71,North,0,0.0,12.0,68,0.00,,,-99.99,Weather View 32 v60,2013-06-09 23:55:00,
2013-06-09 17:00:00,64.6,53.8,29.71,South,186,1.0,12.0,68,0.00,,,-99.99,Weather View 32 v60,2013-06-10 00:00:00,
2013-06-09 17:05:00,64.7,53.9,29.72,South,174,4.0,12.0,68,0.00,,,-99.99,Weather View 32 v60,2013-06-10 00:05:00,
2013-06-09 17:10:00,64.7,53.9,29.72,North,9,4.0,12.0,68,0.00,,,-99.99,Weather View 32 v60,2013-06-10 00:10:00,
2013-06-09 17:20:00,64.2,53.8,29.72,SSW,207,0.0,12.0,69,0.00,,,-99.99,Weather View 32 v60,2013-06-10 00:20:00,
2013-06-09 17:25:00,64.1,54.1,29.72,NNW,340,1.0,12.0,70,0.00,,,-99.99,Weather View 32 v60,2013-06-10 00:25:00,
2013-06-09 17:30:00,64.0,54.0,29.72,SSE,147,0.0,12.0,70,0.00,,,-99.99,Weather View 32 v60,2013-06-10 00:30:00,
2013-06-09 17:35:00,63.9,53.9,29.72,WNW,286,2.0,12.0,70,0.00,,,-99.99,Weather View 32 v60,2013-06-10 00:35:00,
2013-06-09 17:40:00,63.5,53.9,29.72,North,351,7.0,12.0,71,0.00,,,-99.99,Weather View 32 v60,2013-06-10 00:40:00,
2013-06-09 17:45:00,63.2,53.6,29.72,ESE,118,3.0,12.0,71,0.00,,,-99.99,Weather View 32 v60,2013-06-10 00:45:00,
2013-06-09 17:50:00,63.2,53.6,29.72,North,11,6.0,9.0,71,0.00,,,-99.99,Weather View 32 v60,2013-06-10 00:50:00,
2013-06-09 17:55:00,63.1,53.5,29.71,SSW,192,4.0,9.0,71,0.00,,,-99.99,Weather View 32 v60,2013-06-10 00:55:00,
2013-06-09 18:00:00,63.1,53.9,29.71,SSE,166,1.0,9.0,72,0.00,,,-99.99,Weather View 32 v60,2013-06-10 01:00:00,
2013-06-09 18:05:00,63.2,53.6,29.71,South,182,2.0,9.0,71,0.00,,,-99.99,Weather View 32 v60,2013-06-10 01:05:00,
2013-06-09 18:10:00,63.1,53.9,29.71,South,186,4.0,9.0,72,0.00,,,-99.99,Weather View 32 v60,2013-06-10 01:10:00,
2013-06-09 18:20:00,63.0,53.8,29.71,SSE,167,0.0,9.0,72,0.00,,,-99.99,Weather View 32 v60,2013-06-10 01:20:00,
2013-06-09 18:25:00,63.0,53.8,29.71,SSE,154,3.0,12.0,72,0.00,,,-99.99,Weather View 32 v60,2013-06-10 01:25:00,
2013-06-09 18:30:00,62.8,53.6,29.71,NE,51,3.0,12.0,72,0.00,,,-99.99,Weather View 32 v60,2013-06-10 01:30:00,
2013-06-09 18:35:00,62.4,53.6,29.71,NNE,26,0.0,12.0,73,0.00,,,-99.99,Weather View 32 v60,2013-06-10 01:35:00,
2013-06-09 18:40:00,62.3,53.5,29.71,North,357,2.0,12.0,73,0.00,,,-99.99,Weather View 32 v60,2013-06-10 01:40:00,
2013-06-09 18:45:00,62.1,53.7,29.71,ESE,117,3.0,12.0,74,0.00,,,-99.99,Weather View 32 v60,2013-06-10 01:45:00,
2013-06-09 18:50:00,62.0,53.6,29.71,North,7,4.0,12.0,74,0.00,,,-99.99,Weather View 32 v60,2013-06-10 01:50:00,
2013-06-09 18:55:00,61.7,53.3,29.71,North,352,8.0,14.0,74,0.00,,,-99.99,Weather View 32 v60,2013-06-10 01:55:00,
2013-06-09 19:00:00,61.3,53.3,29.71,North,11,7.0,14.0,75,0.00,,,-99.99,Weather View 32 v60,2013-06-10 02:00:00,
2013-06-09 19:05:00,60.9,53.3,29.71,North,0,5.0,17.0,76,0.00,,,-99.99,Weather View 32 v60,2013-06-10 02:05:00,
2013-06-09 19:10:00,60.6,53.0,29.71,South,173,1.0,17.0,76,0.00,,,-99.99,Weather View 32 v60,2013-06-10 02:10:00,
2013-06-09 19:20:00,60.6,53.0,29.71,NNW,346,0.0,17.0,76,0.00,,,-99.99,Weather View 32 v60,2013-06-10 02:20:00,
2013-06-09 19:25:00,60.6,53.0,29.70,NE,42,0.0,17.0,76,0.00,,,-99.99,Weather View 32 v60,2013-06-10 02:25:00,
2013-06-09 19:30:00,60.6,53.0,29.71,NNE,17,2.0,17.0,76,0.00,,,-99.99,Weather View 32 v60,2013-06-10 02:30:00,
2013-06-09 19:35:00,60.5,53.2,29.71,North,0,4.0,17.0,77,0.00,,,-99.99,Weather View 32 v60,2013-06-10 02:35:00,
2013-06-09 19:40:00,60.2,53.3,29.71,NNE,29,0.0,17.0,78,0.00,,,-99.99,Weather View 32 v60,2013-06-10 02:40:00,
2013-06-09 19:45:00,60.1,53.2,29.71,NNE,29,2.0,17.0,78,0.00,,,-99.99,Weather View 32 v60,2013-06-10 02:45:00,
2013-06-09 19:50:00,60.0,53.1,29.71,North,0,0.0,17.0,78,0.00,,,-99.99,Weather View 32 v60,2013-06-10 02:50:00,
2013-06-09 19:55:00,59.8,52.9,29.71,North,0,0.0,17.0,78,0.00,,,-99.99,Weather View 32 v60,2013-06-10 02:55:00,
2013-06-09 20:00:00,59.7,53.2,29.71,NNE,12,5.0,17.0,79,0.00,,,-99.99,Weather View 32 v60,2013-06-10 03:00:00,
2013-06-09 20:05:00,59.6,53.1,29.71,North,9,3.0,12.0,79,0.00,,,-99.99,Weather View 32 v60,2013-06-10 03:05:00,
2013-06-09 20:10:00,59.5,53.0,29.70,NW,317,1.0,13.0,79,0.00,,,-99.99,Weather View 32 v60,2013-06-10 03:10:00,
2013-06-09 20:20:00,59.3,53.1,29.70,North,0,2.0,13.0,80,0.00,,,-99.99,Weather View 32 v60,2013-06-10 03:20:00,
2013-06-09 20:25:00,59.2,53.0,29.71,NNE,23,2.0,13.0,80,0.00,,,-99.99,Weather View 32 v60,2013-06-10 03:25:00,
2013-06-09 20:30:00,59.2,53.0,29.71,NE,41,1.0,13.0,80,0.00,,,-99.99,Weather View 32 v60,2013-06-10 03:30:00,
2013-06-09 20:35:00,59.1,52.9,29.71,SE,139,0.0,13.0,80,0.00,,,-99.99,Weather View 32 v60,2013-06-10 03:35:00,
2013-06-09 20:40:00,59.1,52.6,29.71,NNE,29,3.0,13.0,79,0.00,,,-99.99,Weather View 32 v60,2013-06-10 03:40:00,
2013-06-09 20:45:00,59.2,53.0,29.71,SSW,205,4.0,13.0,80,0.00,,,-99.99,Weather View 32 v60,2013-06-10 03:45:00,
2013-06-09 20:50:00,59.2,53.0,29.71,ESE,112,2.0,13.0,80,0.00,,,-99.99,Weather View 32 v60,2013-06-10 03:50:00,
2013-06-09 20:55:00,59.0,52.8,29.71,East,99,0.0,13.0,80,0.00,,,-99.99,Weather View 32 v60,2013-06-10 03:55:00,
2013-06-09 21:00:00,59.0,52.8,29.71,NNW,340,0.0,13.0,80,0.00,,,-99.99,Weather View 32 v60,2013-06-10 04:00:00,
2013-06-09 21:05:00,58.9,52.7,29.71,North,0,0.0,13.0,80,0.00,,,-99.99,Weather View 32 v60,2013-06-10 04:05:00,
2013-06-09 21:10:00,58.8,53.0,29.72,North,0,0.0,8.0,81,0.00,,,-99.99,Weather View 32 v60,2013-06-10 04:10:00,
2013-06-09 21:15:00,58.8,53.0,29.72,North,0,0.0,8.0,81,0.00,,,-99.99,Weather View 32 v60,2013-06-10 04:15:00,
2013-06-09 21:20:00,58.8,52.6,29.71,SSE,163,2.0,8.0,80,0.00,,,-99.99,Weather View 32 v60,2013-06-10 04:20:00,
2013-06-09 21:25:00,58.7,52.9,29.72,SSE,163,0.0,8.0,81,0.00,,,-99.99,Weather View 32 v60,2013-06-10 04:25:00,
2013-06-09 21:30:00,58.7,52.9,29.71,SSE,163,0.0,8.0,81,0.00,,,-99.99,Weather View 32 v60,2013-06-10 04:30:00,
2013-06-09 21:35:00,58.6,52.8,29.71,NNE,21,0.0,8.0,81,0.00,,,-99.99,Weather View 32 v60,2013-06-10 04:35:00,
2013-06-09 21:40:00,58.5,52.7,29.71,North,6,1.0,8.0,81,0.00,,,-99.99,Weather View 32 v60,2013-06-10 04:40:00,
2013-06-09 21:45:00,58.5,52.7,0.00,North,7,0.0,8.0,81,0.00,,,-99.99,Weather View 32 v60,2013-06-10 04:45:00,
2013-06-09 21:50:00,58.4,52.6,29.71,North,6,2.0,8.0,81,0.00,,,-99.99,Weather View 32 v60,2013-06-10 04:50:00,
2013-06-09 21:55:00,58.3,52.5,29.72,South,191,1.0,8.0,81,0.00,,,-99.99,Weather View 32 v60,2013-06-10 04:55:00,
2013-06-09 22:00:00,58.3,52.5,29.73,South,174,1.0,6.0,81,0.00,,,-99.99,Weather View 32 v60,2013-06-10 05:00:00,
2013-06-09 22:05:00,58.4,52.6,29.73,SE,131,1.0,6.0,81,0.00,,,-99.99,Weather View 32 v60,2013-06-10 05:05:00,
2013-06-09 22:10:00,58.3,52.5,29.73,SE,127,2.0,6.0,81,0.00,,,-99.99,Weather View 32 v60,2013-06-10 05:10:00,
2013-06-09 22:15:00,58.2,52.7,29.73,SE,127,2.0,6.0,82,0.00,,,-99.99,Weather View 32 v60,2013-06-10 05:15:00,
2013-06-09 22:25:00,58.1,52.6,29.72,SE,127,1.0,6.0,82,0.00,,,-99.99,Weather View 32 v60,2013-06-10 05:25:00,
2013-06-09 22:30:00,58.0,52.5,29.72,East,94,6.0,6.0,82,0.00,,,-99.99,Weather View 32 v60,2013-06-10 05:30:00,
2013-06-09 22:35:00,58.0,52.5,29.73,WSW,237,0.0,6.0,82,0.00,,,-99.99,Weather View 32 v60,2013-06-10 05:35:00,
2013-06-09 22:40:00,57.9,52.4,29.73,WSW,237,0.0,6.0,82,0.00,,,-99.99,Weather View 32 v60,2013-06-10 05:40:00,
2013-06-09 22:50:00,57.8,52.3,29.73,North,0,0.0,9.0,82,0.00,,,-99.99,Weather View 32 v60,2013-06-10 05:50:00,
2013-06-09 23:00:00,57.7,52.2,29.72,North,0,2.0,9.0,82,0.00,,,-99.99,Weather View 32 v60,2013-06-10 06:00:00,
2013-06-09 23:05:00,57.7,52.2,29.72,NNE,20,4.0,9.0,82,0.00,,,-99.99,Weather View 32 v60,2013-06-10 06:05:00,
2013-06-09 23:10:00,57.7,52.2,29.72,NNE,20,0.0,9.0,82,0.00,,,-99.99,Weather View 32 v60,2013-06-10 06:10:00,
2013-06-09 23:16:00,57.7,52.2,29.73,NNE,20,2.0,9.0,82,0.00,,,-99.99,Weather View 32 v60,2013-06-10 06:16:00,
2013-06-09 23:25:00,57.8,52.7,29.73,SE,138,0.0,9.0,83,0.00,,,-99.99,Weather View 32 v60,2013-06-10 06:25:00,
2013-06-09 23:30:00,57.9,52.8,29.73,SE,138,0.0,9.0,83,0.00,,,-99.99,Weather View 32 v60,2013-06-10 06:30:00,
2013-06-09 23:35:00,57.9,52.8,29.73,SE,138,0.0,9.0,83,0.00,,,-99.99,Weather View 32 v60,2013-06-10 06:35:00,
2013-06-09 23:40:00,57.9,52.8,29.74,SE,138,0.0,9.0,83,0.00,,,-99.99,Weather View 32 v60,2013-06-10 06:40:00,
2013-06-09 23:45:00,57.8,52.3,29.73,SE,138,0.0,7.0,82,0.00,,,-99.99,Weather View 32 v60,2013-06-10 06:45:00,
2013-06-09 23:55:00,57.9,52.8,29.73,SE,138,0.0,7.0,83,0.00,,,-99.99,Weather View 32 v60,2013-06-10 06:55:00,